www.pogodaiklimat.ru

Погода и климат >> Архив погоды >> Нигер >> Зиндер


ПОГОДА в Зиндере

  • Прогноз погоды в Зиндере
  • Монитор погоды в Зиндере

АРХИВ ПОГОДЫ в Зиндере

Время (UTC), дата Ветер
(напр.,м/с)
 
Видим.   Явления Облачность Т
(С)
Тd
(С)
f
(%)
Тe
(С)
Тes
(С)
Комфортность P
(гПа)
Po
(гПа)
Тmin
(С)
Tmax
(С)
R
(мм)
R24
(мм)
S
(см)
03 9.06 штиль 0 10 км 9/0
[Cs]
+27.1 +22.4 76 +36 +36 очень
душно
1010.6 961.3
06 9.06 ЮЗ 2 10 км 6/0
[Ci sp]
+27.5 +22.4 74 +36 +37 очень
душно
1012.1 962.4 +26.5
09 9.06 Ю 6 10 км 6/0
[Ac trans Ci sp]
+32.0 +20.8 52 +39 +44 очень
душно
1012.4 962.9
12 9.06 ЮВ 4 10 км 9/4 1000 м
[Cu med, cong Ci sp]
+35.4 +19.4 39 +41 +48 опасность
перегрева
1010.7 961.4
15 9.06 СВ 4 10 км 9/4 1000 м
[Cu med, cong Ci sp]
+37.7 +18.4 32 +41 +44 опасность
перегрева
1008.1 959.0
18 9.06 Ю 8 10 км 9/0
[Cs]
+35.2 +17.9 36 +39 +39 очень
душно
1007.6 958.4 +37.6
21 9.06 Ю 4 10 км 9/0
[Cs]
+32.4 +19.7 47 +38 +38 очень
душно
1009.0 959.9
00 10.06 ЮЗ 6 10 км 9/0
[Ac trans Cs]
+30.8 +20.4 54 +38 +38 очень
душно
1009.0 959.9
03 10.06 ЮЗ 4 10 км 9/0
[Ac trans Cs]
+29.1 +20.7 61 +36 +36 очень
душно
1008.3 959.3
06 10.06 З 6 10 км 9/0
[Ac trans Ci sp]
+29.5 +21.0 60 +37 +37 очень
душно
1009.7 960.5 +28.6
09 10.06 СЗ 10 10 км 6/0
[Ac trans Ci sp]
+33.4 +20.9 48 +41 +41 опасность
перегрева
1010.2 961.0
12 10.06 ЮЗ 6 10 км 9/9 1200 м
[]
+36.5 +19.7 38 +42 +43 опасность
перегрева
1008.3 959.3
15 10.06 ЮЗ 10 3000 м гроза, ливневой дождь 9/4 1200 м
[Cb cap Ac As Ci sp]
+34.0 +17.3 37 +37 +38 очень
душно
1005.6 956.5
18 10.06 ЮЗ 8 10 км {гроза, дождь} 9/3 1200 м
[Cb cap Cs]
+28.0 +21.4 67 +35 +35 очень
душно
1006.7 957.1 +38.1 6
21 10.06 ЮЗ 8 10 км 9/0
[Cs]
+27.0 +21.4 71 +34 +34 очень
душно
1008.1 958.6
00 11.06 ЮЗ 8 10 км 9/0
[Cs]
+27.0 +21.1 70 +34 +34 очень
душно
1008.2 959.0
03 11.06 Ю 6 10 км 9/0
[Cs]
+26.0 +21.0 74 +33 +33 очень
душно
1008.2 958.7
06 11.06 З 4 10 км 9/0
[Cs]
+25.0 +22.2 84 +32 +33 очень
душно
1010.5 960.3 +24.5 6
09 11.06 СЗ 8 10 км 9/0
[Cs]
+31.0 +19.9 52 +37 +40 очень
душно
1010.9 961.1
12 11.06 СЗ 10 10 км 9/3 1200 м
[Cu med, cong Cs]
+36.5 +18.7 35 +41 +41 опасность
перегрева
1008.7 959.5
15 11.06 СЗ 12 10 км 9/4 1200 м
[Cu med, cong Ci sp]
+37.4 +17.6 31 +40 +40 очень
душно
1006.2 957.1
18 11.06 СЗ 2 10 км 9/1 1200 м
[Cb cap Ac trans Cs]
+35.2 +14.4 29 +36 +36 очень
жарко
1006.4 957.0 +37.8
21 11.06 ЮЗ 4 10 км 9/0
[Ac trans Cs]
+32.3 +17.4 41 +36 +36 очень
душно
1008.8 959.5
03 12.06 З 6 10 км 9/0
[Cs]
+28.0 +20.6 64 +35 +35 очень
душно
1008.1 959.0
06 12.06 ЮЗ 4 10 км 9/0
[Cs]
+26.5 +22.1 77 +34 +35 очень
душно
1011.1 961.6 +26.5
09 12.06 З 10 10 км 6/0
[]
+32.2 +20.5 50 +39 +40 очень
душно
1011.5 962.1
12 12.06 СЗ 10 10 км 8/3 1200 м
[Cu hum Ci sp]
+35.0 +20.1 42 +41 +42 опасность
перегрева
1009.9 960.7
15 12.06 З 8 10 км 9/4 1000 м
[Cu med, cong Ci sp]
+38.0 +15.5 27 +40 +40 очень
душно
1006.3 957.4
18 12.06 ЮЗ 12 10 км 9/1 1200 м
[Cb cap Ac As Ci sp]
+32.5 +17.2 40 +36 +36 очень
душно
1007.9 958.3 +38.8
21 12.06 ЮЗ 4 10 км 9/0
[Ac As Ci sp]
+32.0 +17.3 41 +36 +36 очень
душно
1009.7 960.4
03 13.06 ЮЗ 6 10 км 9/0
[Ac As Ci sp]
+28.0 +21.3 67 +35 +35 очень
душно
1009.7 960.6
06 13.06 ЮЗ 6 10 км 9/0
[Ac trans Ci sp]
+28.0 +21.3 67 +35 +36 очень
душно
1011.8 962.2 +27.6
09 13.06 З 8 10 км 9/0
[Ac trans Cs]
+32.5 +20.9 50 +40 +42 очень
душно
1012.1 962.8
12 13.06 СЗ 10 10 км 9/0
[Ac trans Cs]
+36.7 +19.6 37 +42 +43 опасность
перегрева
1009.6 960.6
15 13.06 ЮЗ 4 10 км 9/3 1200 м
[Cb cap Ci sp]
+39.5 +18.0 29 +43 +46 опасность
перегрева
1006.6 957.8
18 13.06 С 10 10 км в посл. час гроза {дождь} 9/3 1200 м
[Cb cap Ac As Ci sp]
+29.0 +19.4 56 +35 +35 очень
душно
1009.0 969.2 +39.6
21 13.06 СЗ 4 10 км 9/0
[]
+28.0 +22.2 71 +37 +37 очень
душно
1009.9 960.4
03 14.06 СЗ 4 10 км 9/0
[Cs]
+27.4 +20.9 68 +34 +34 очень
душно
1008.2 959.2
06 14.06 ЮВ 9 25 км 3/3 600 м
[Cu Sc]
+25.0 +14.4 52 +28 +28 жарко 1020.2 968.6 +20.5 1
09 14.06 СЗ 12 10 км 9/0
[Cs]
+32.5 +19.3 46 +38 +38 очень
душно
1011.4 961.8
12 14.06 СЗ 8 10 км 9/0
[Cs]
+35.6 +20.2 41 +42 +45 опасность
перегрева
1009.6 960.3
15 14.06 СВ 8 10 км 9/1 1000 м
[Cu hum Cs]
+39.5 +14.9 24 +41 +42 опасность
перегрева
1007.0 958.1
18 14.06 Ю 16 10 км 9/1 1200 м
[Cb cap Ac trans Ci sp]
+34.4 +17.0 36 +38 +38 очень
душно
1008.0 958.6 +40.0
21 14.06 Ю 6 10 км 9/0
[Ac trans Ci sp]
+31.6 +18.3 45 +36 +36 очень
душно
1009.6 960.3
03 15.06 ЮЗ 6 10 км 9/0
[Ac trans Cs]
+28.8 +24.0 75 +40 +40 очень
душно
1009.1 960.2
06 15.06 ЮЗ 4 10 км 9/0
[Ac trans Cs]
+28.4 +24.6 80 +40 +41 очень
душно
1011.3 961.9 +28.0
09 15.06 СЗ 10 10 км 9/0
[Cs]
+33.2 +23.0 55 +43 +44 опасность
перегрева
1011.7 962.4
12 15.06 СВ 4 10 км 9/9 1200 м
[]
+38.0 +19.8 35 +43 +45 опасность
перегрева
1009.4 960.5
15 15.06 ЮВ 10 10 км в посл. час гроза 9/4 1000 м
[Cb cap Ci sp]
+39.2 +13.8 22 +39 +40 очень
жарко
1006.6 957.8
18 15.06 ЮЗ 10 10 км {гроза} 9/1 1200 м
[Cb cap Ac As Ci sp]
+34.8 +17.8 37 +39 +39 очень
душно
1007.4 958.2 +40.5
21 15.06 ЮЗ 8 10 км 9/0
[Ac trans Ci sp]
+32.5 +18.2 43 +37 +37 очень
душно
1010.5 961.3

 

Местоположение метеостанции Зиндер (Нигер): широта 13.78 долгота 8.98 высота над уровнем моря 453 м.

В архиве по умолчанию представлена погода в Зиндере за последнюю неделю. Архивные данные за месяц целиком и за предыдущие месяцы, начиная с января 2011 года, Вы можете получить, выбрав интересующий диапазон дат из раскрывающегося списка и нажав кнопку "Ввод!".


*Определитесь, кто Вы:
робот инопланетянин человек

Внимание! Время в таблицах - всемирное. Для получения местного времени необходимо прибавить поправку, которая равна 1 ч.

Смотрите также архив погоды в соседних городах и на ближайших метеорологических станциях:

Погода в Магарьа (Нигер) (89 км)
Погода в Гуре (Нигер) (144 км)
Погода в Кацине (Нигерия) (164 км)
Погода в Кано (Нигерия) (199 км)
Погода в Маради (Нигер) (208 км)
Погода в Майне-Сороа (Нигер) (330 км)
Погода в Агадесе (Нигер) (371 км)
Погода в Вирнин-Конни (Нигер) (403 км)
Погода в Диффе (Нигер) (413 км)
Погода в Тахве (Нигер) (421 км)

Пояснения к столбцам:

Ветер - указаны скорость ветра в м/с - средняя за 10 мин, порывы в срок и между сроками (в фигурных скобках) и направление, откуда дует ветер: С - северный, СВ - северо-восточный, В - восточный, ЮВ - юго-восточный, Ю - южный, ЮЗ - юго-западный, З - западный, СЗ - северо-западный.
Видимость - горизонтальная дальность видимости в метрах или километрах. При видимости от 1 до 10 км при отсутствии осадков обычно наблюдается дымка, при ухудшении видимости до 1 км и менее - туман. В сухую погоду видимость может ухудшаться дымом, пылью или мглою.
Явления - указаны атмосферные явления, наблюдавшиеся в срок или в последний час перед сроком; фигурными скобками обозначены явления, наблюдавшиеся между сроками (за 1-3 часа до срока); квадратными скобками обозначены град или гололедные отложения с указанием их диаметра в мм.
Облачность - указаны через наклонную черту общая и нижняя облачность в баллах и высота нижней границы облаков в метрах; квадратными скобками обозначены формы облаков: Ci - перистые, Cs - перисто-слоистые, Cc - перисто-кучевые, Ac - высококучевые, As - высокослоистые, Sc - слоисто-кучевые, Ns - слоисто-дождевые, Cu - кучевые, Cb - кучево-дождевые. Подробнее классификацию облаков см. в Атласе облаков (PDF).
T - Температура воздуха - температура, измеренная на высоте 2 м над землей.
Td - Температура точки росы - температура, при понижении до которой содержащийся в воздухе водяной пар достигнет насыщения.
f - Относительная влажность воздуха - влажноcть воздуха, измеренная на высоте 2 м над землей.
Te - Эффективная температура - температура, которую ощущает одетый по сезону человек в тени. Характеристика душности погоды. При расчете учитывается влияние влажности воздуха и скорости ветра на теплоощущения человека.
Tes - Эффективная температура на солнце - температура, которую ощущает человек, с поправкой на солнечный нагрев. Характеристика знойности погоды. Зависит от высоты солнца над горизонтом, облачности и скорости ветра. Ночью, в пасмурную погоду, а также при ветре 12 м/с и более поправка равна нулю.
P - Атмосферное давление - приведенное к уровню моря атмосферное давление.
Po - Атмосферное давление - измеренное на уровне метеостанции атмосферное давление.
Tmin - Минимальная температура - минимум температуры воздуха на высоте 2 м над землей.
Tmax - Максимальная температура - максимум температуры воздуха на высоте 2 м над землей.
R - Количество осадков - Количество выпавших осадков за период времени, мм. При наведении курсора мыши на число - период времени, за который выпало указанное количество осадков.
R24 - Количество осадков - Количество выпавших осадков за 24 часа, мм.
S - Снежный покров - Высота снежного покрова, см. При наведении курсора мыши на число - состояние снежного покрова и степень покрытия местности в баллах.